Location: Eenumerhoogte
(53.3420°N, 6.7843°E)
Time: 11:08:37
(UTC+00:00)

Cosmos 2219 Rocket - Pass Details

Date: 15 May 2026
Orbit: 826 x 846 km, 71.0° (Epoch: 5 June)

Event Time Altitude Azimuth Distance (km) Brightness Sun altitude
Rises 20:12:41 0° 328° (NNW) 3,403 7.3 -6.2°
Reaches altitude 10° 20:15:15 10° 335° (NNW) 2,469 6.0 -6.5°
Maximum altitude 20:20:40 44° 47° (NE) 1,150 2.9 -7.0°
Drops below altitude 10° 20:26:05 10° 120° (ESE) 2,466 4.0 -7.6°
Enters shadow 20:26:30 - 121° (ESE) 2,618 4.1 -7.6°
